Theta_e
306 306 305 305 305 304 303 304 305 305 305 304 304 303 302 301 300 300 301 301 302 301 301 301 304 304 305 305 305 305 304 304 304 305 305 305 305 305 305 305 303 302 301 300 299 298 298 297 294 293 292 293
305 304 304 304 303 303 302 303 303 304 303 303 303 302 302 301 299 299 299 299 300 300 299 299 301 303 304 304 303 303 302 303 303 304 303 302 302 303 303 301 298 297 298 298 298 297 296 295 293 292 291 292
307 305 304 303 303 303 303 302 302 303 303 302 302 301 301 300 299 297 297 297 297 298 297 297 298 300 302 302 302 301 301 301 301 302 301 301 301 300 298 296 295 295 296 296 296 296 295 293 291 290 291 291
307 306 305 304 304 303 303 303 303 302 302 302 301 301 300 300 299 297 297 296 296 297 295 296 297 298 300 301 300 299 299 299 299 300 300 299 299 297 296 294 293 293 294 294 294 294 293 291 290 292 291 291
305 305 304 305 304 304 305 306 306 305 303 302 303 302 301 301 300 300 299 298 297 296 296 293 296 297 297 299 299 298 297 296 297 298 298 297 297 295 294 292 291 291 291 292 292 291 290 290 291 291 291 291
304 305 302 303 303 302 302 303 302 304 305 304 304 301 301 302 299 299 299 298 296 297 296 297 295 295 296 297 297 296 295 294 295 296 296 295 295 294 292 291 293 292 290 289 290 289 289 291 291 291 291 291
303 303 302 302 302 302 300 300 301 301 302 303 303 302 301 300 300 299 299 298 297 297 296 296 295 293 295 295 295 294 294 293 293 294 294 293 293 292 291 292 292 292 292 292 289 289 291 291 291 290 291 291
301 300 299 299 299 299 299 300 300 300 300 300 301 301 300 299 299 299 298 297 295 295 297 296 294 292 292 292 292 290 293 292 292 292 292 291 291 291 291 292 291 291 291 291 291 291 290 289 290 290 290 290
297 298 297 298 298 298 298 299 299 299 299 299 299 299 298 299 298 299 298 298 297 297 296 296 296 296 295 295 295 292 294 294 294 293 293 293 292 292 292 291 291 291 290 290 290 290 290 289 289 290 290 290
296 296 297 297 296 297 298 298 297 298 298 298 298 298 297 297 298 298 297 297 297 296 296 295 295 295 294 294 294 294 293 293 293 293 292 292 292 291 291 291 291 290 289 289 289 289 289 287 289 287 289 289
297 297 297 297 297 298 298 298 298 297 297 297 297 298 297 297 296 296 296 296 296 296 295 295 294 294 294 294 293 294 293 293 293 292 292 292 292 292 291 291 291 290 289 289 289 289 289 288 286 287 287 289
296 297 297 297 297 297 297 297 297 297 296 298 297 297 296 296 297 295 295 296 295 295 295 295 295 294 294 294 293 294 293 292 292 292 292 292 291 290 291 290 290 290 289 289 290 288 289 289 288 287 287 287
296 296 296 296 296 296 296 296 296 297 297 296 296 296 297 296 295 295 295 295 295 294 295 295 295 293 293 294 293 294 292 293 292 292 291 291 291 291 290 290 290 290 290 290 289 288 288 288 288 288 286 286
296 295 295 295 295 295 295 295 296 296 295 295 295 295 296 296 295 294 294 294 294 294 294 294 294 294 294 293 293 292 292 292 292 291 291 291 291 290 290 290 290 289 290 289 289 289 288 288 288 289 288 287
294 295 295 295 295 295 295 295 295 295 295 295 294 294 296 296 296 294 294 294 294 293 293 294 294 293 293 292 293 293 292 292 292 291 290 291 290 290 290 289 290 289 289 289 289 289 289 288 288 288 288 288
294 294 294 294 293 293 294 295 295 294 294 294 294 295 294 294 294 294 294 294 294 293 293 293 293 293 293 292 293 293 292 292 292 291 291 291 291 290 290 289 289 290 289 289 289 289 288 288 288 287 288 288
293 293 292 291 291 292 292 292 292 292 292 292 293 293 294 293 293 293 293 292 293 293 292 292 292 292 293 293 293 293 293 293 292 291 291 291 291 290 290 289 289 290 289 288 289 289 288 288 288 288 288 288
290 291 291 291 291 292 292 291 291 291 291 291 291 292 292 292 292 293 292 292 292 292 292 292 292 292 292 292 293 292 292 291 291 291 291 291 290 289 289 289 289 288 288 288 289 288 289 288 288 288 288 287
290 290 291 291 291 291 291 291 291 291 291 291 291 291 291 291 291 292 292 292 291 291 291 291 291 291 291 292 292 290 291 290 290 290 290 290 289 290 289 289 289 289 288 288 288 288 288 288 288 288 288 288
289 289 289 290 290 290 291 291 290 290 290 291 290 291 291 291 291 291 290 290 291 290 290 290 290 290 291 291 290 290 290 290 289 289 290 290 289 288 288 289 289 289 288 288 288 288 288 288 288 288 288 288
290 289 289 289 289 290 290 289 289 289 290 290 290 290 289 290 290 290 290 290 290 289 290 289 290 290 290 290 289 289 289 289 290 289 288 288 289 289 287 287 287 288 288 288 288 288 288 288 288 288 288 288
288 289 288 288 289 289 288 289 289 289 289 289 289 289 288 289 289 289 289 289 289 289 289 289 289 289 289 289 288 288 288 288 289 289 288 287 288 288 287 286 287 287 287 288 287 287 287 287 287 287 287 288
288 288 288 287 287 287 287 288 288 288 288 288 288 287 288 288 288 288 288 288 288 288 287 288 288 288 288 288 287 287 287 288 288 288 288 287 287 288 287 287 287 286 286 286 286 286 286 287 287 288 288 288
286 286 285 285 285 286 286 286 286 287 287 287 286 287 287 287 287 287 287 287 287 287 286 286 286 286 287 286 286 286 286 286 286 286 286 286 286 286 286 287 287 287 286 286 286 285 286 287 287 287 287 287
283 283 283 284 283 283 284 284 285 285 285 285 285 286 286 286 286 286 286 286 285 285 285 285 285 285 285 285 285 285 285 285 285 286 286 285 286 285 285 285 287 287 287 284 284 286 286 287 288 287 286 287
282 283 282 281 282 282 283 283 283 283 284 284 284 285 285 285 285 284 284 284 284 284 283 283 283 283 283 283 284 284 284 284 285 285 285 285 284 286 284 284 286 286 285 283 283 282 283 284 286 288 287 286
281 282 282 281 281 282 282 283 283 283 283 283 283 283 284 283 283 282 282 282 282 281 281 281 281 281 281 282 282 281 282 282 283 283 283 284 283 283 284 284 286 285 286 282 283 284 282 280 281 285 285 286
282 282 282 282 282 282 282 281 283 282 282 282 281 281 282 281 281 280 280 280 280 280 280 280 280 281 280 280 281 280 280 280 281 282 282 282 283 283 281 283 283 286 285 284 282 279 280 281 281 278 281 284
281 281 280 281 281 282 281 281 280 278 278 278 278 278 278 278 279 279 279 279 279 280 279 280 280 280 280 280 280 280 280 280 280 281 281 282 282 281 281 280 282 283 285 284 285 282 279 278 278 279 282 283
279 278 277 277 276 275 275 274 274 273 273 274 275 275 277 277 278 278 278 278 279 279 279 279 279 279 278 278 278 279 279 279 280 280 280 281 281 280 281 281 280 280 284 284 284 284 284 282 279 279 281 280
277 276 275 275 274 274 273 273 273 274 275 275 275 276 275 276 277 277 277 277 278 278 278 278 278 277 277 276 277 277 277 277 278 279 279 280 280 280 280 281 278 279 280 282 283 284 283 283 283 283 280 278
Wind_Speed
9 8 7 7 7 6 6 6 6 7 7 7 8 8 8 8 8 8 8 9 9 10 10 10 10 10 10 10 10 10 11 11 11 11 11 11 11 10 9 10 10 10 11 10 10 10 9 10 11 11 10 5
8 7 6 6 5 5 4 4 4 4 5 6 6 7 7 7 7 7 7 7 8 9 9 9 9 9 9 10 10 10 10 10 10 10 10 11 11 11 11 10 10 11 10 10 10 9 9 9 10 9 7 5
7 6 5 4 4 3 3 2 2 2 3 3 4 5 6 5 5 5 5 5 6 7 7 7 7 9 9 9 10 10 10 10 10 10 10 10 10 10 10 10 10 10 9 9 9 9 9 9 9 6 4 5
5 5 2 2 2 1 1 1 1 1 1 2 3 4 4 4 1 2 2 3 2 5 5 6 6 8 9 9 9 10 10 10 10 10 10 10 10 10 10 9 8 8 8 9 8 8 8 8 7 3 4 5
2 4 1 3 4 4 5 4 3 3 2 2 4 3 4 4 2 1 2 1 4 2 3 4 5 7 9 9 9 9 9 10 9 9 9 9 9 9 9 8 3 5 7 7 7 7 7 6 3 4 4 4
1 1 1 1 1 1 1 1 3 2 2 1 3 3 3 2 2 2 2 2 1 3 3 1 3 5 7 8 8 8 8 8 8 8 8 8 8 8 7 4 3 2 2 3 5 5 5 3 3 3 4 4
1 1 1 2 1 2 2 2 2 3 2 3 1 3 3 3 2 3 3 2 3 3 4 3 3 4 5 6 6 6 5 4 5 6 6 6 6 6 4 2 3 3 3 2 1 2 2 3 3 4 3 3
1 1 1 2 2 2 2 2 1 1 2 2 2 2 3 2 2 3 3 3 5 4 3 1 4 3 5 4 2 3 4 2 1 4 1 1 3 2 3 3 3 3 3 3 3 3 3 3 3 3 3 3
2 1 2 2 1 1 1 1 1 1 1 1 2 1 2 2 2 2 2 2 2 2 2 3 3 1 2 2 2 1 3 3 2 2 3 2 2 2 3 3 3 3 4 3 3 3 3 3 3 3 3 3
0 1 1 1 1 1 1 1 1 2 2 2 2 2 2 1 0 1 1 1 2 2 2 2 2 2 2 2 2 2 3 3 3 3 2 2 2 2 2 3 3 3 3 3 3 3 3 2 3 2 3 3
1 1 1 2 3 2 3 2 3 3 2 3 3 2 1 1 1 1 1 1 1 1 2 2 2 2 2 3 3 2 3 3 3 3 3 3 3 3 3 3 2 2 2 2 3 3 3 2 2 2 2 3
4 4 4 4 4 4 4 3 4 4 4 2 3 3 3 2 2 2 2 2 2 2 2 2 2 2 3 3 3 2 2 2 3 3 3 3 4 3 3 3 3 3 3 2 2 3 3 3 3 2 2 2
6 6 6 6 6 6 5 6 5 5 4 5 4 4 3 3 3 3 3 3 3 3 3 3 3 3 3 3 3 3 3 2 3 3 3 3 4 4 4 4 3 3 3 3 3 3 4 4 4 4 2 2
8 7 8 8 8 7 8 7 7 7 7 6 6 5 5 4 4 4 4 4 4 3 4 4 3 3 3 4 3 3 4 3 3 4 4 4 4 4 4 4 4 3 4 4 4 3 4 4 4 4 4 3
9 9 9 8 8 8 8 7 7 7 7 6 6 7 7 5 5 5 4 4 5 4 4 4 4 4 4 4 3 3 3 3 3 3 4 4 4 4 5 5 4 4 5 5 4 4 4 4 4 5 5 5
10 9 9 9 8 8 7 7 7 7 7 6 6 7 7 7 6 6 6 6 6 6 6 5 5 5 5 5 4 3 3 3 3 4 4 4 4 5 5 5 4 4 5 5 5 4 4 4 4 5 5 5
9 8 8 8 8 7 7 7 7 7 7 7 7 7 8 7 8 6 6 6 7 6 6 6 6 6 6 6 5 5 5 5 5 4 4 4 4 4 4 5 5 4 4 5 5 5 5 5 5 5 5 5
9 9 8 8 8 8 8 7 7 7 7 7 7 6 8 8 8 7 7 7 7 6 6 6 6 7 7 7 6 6 6 5 5 5 5 5 4 4 4 5 5 5 5 5 4 5 4 4 5 5 5 6
10 9 8 8 7 8 7 7 7 7 6 6 6 6 6 9 8 8 8 7 7 7 6 6 6 7 6 6 7 6 6 5 6 6 6 6 6 6 5 5 5 5 6 6 5 5 5 5 5 5 6 6
9 9 8 8 7 7 8 6 6 7 6 6 6 6 6 8 8 8 8 8 7 6 6 6 6 6 6 7 6 6 6 6 6 6 6 6 6 7 7 7 6 6 7 6 6 5 5 5 5 6 6 6
10 9 9 9 8 8 7 7 7 6 6 6 6 6 7 8 8 8 8 8 7 6 6 6 6 6 7 7 6 6 6 6 6 6 5 6 6 6 7 8 9 8 8 7 6 6 6 6 6 6 6 6
9 9 9 8 7 8 7 7 6 6 6 6 6 7 7 8 8 8 9 9 8 6 6 6 6 6 7 7 6 6 6 6 6 6 6 6 6 6 6 7 8 9 8 7 6 7 7 8 7 7 7 6
9 9 8 7 7 7 8 6 6 6 6 6 6 7 8 8 7 8 9 9 9 7 7 7 6 7 8 7 6 6 6 6 6 6 6 7 7 7 7 7 8 8 8 8 7 7 9 9 10 8 7 7
8 8 8 8 8 8 8 7 7 7 6 7 6 8 8 8 7 8 8 9 9 8 8 8 7 8 8 7 7 7 7 7 6 8 9 8 8 9 8 7 7 7 7 8 9 10 10 11 11 10 9 9
9 9 9 8 8 8 7 6 6 5 5 6 6 7 7 7 7 9 9 9 9 9 8 8 8 8 8 8 7 7 7 8 8 8 8 7 7 8 9 8 7 6 5 8 10 9 11 10 9 11 11 11
8 8 7 6 6 6 6 5 5 5 5 5 5 6 7 7 8 9 9 9 10 9 9 9 8 8 8 8 8 8 8 9 8 9 8 7 8 6 8 8 6 6 5 8 9 11 10 10 10 12 9 9
8 7 7 6 6 6 6 4 4 4 5 5 6 6 6 7 8 9 8 9 9 8 8 8 8 8 8 9 9 9 9 9 9 8 8 8 8 8 7 8 7 7 6 8 8 9 11 11 9 3 5 9
8 7 7 6 6 5 5 5 4 4 5 6 7 7 7 7 8 9 8 9 8 7 8 9 9 8 8 9 9 9 9 9 9 8 9 8 9 8 10 8 7 6 6 6 6 7 6 9 9 12 6 6
9 8 8 7 6 5 5 4 5 6 6 7 7 8 8 9 9 9 8 9 9 8 9 9 8 9 9 9 9 8 8 8 9 9 8 9 9 9 9 10 9 8 7 8 7 8 9 8 7 9 9 8
8 8 8 8 8 8 7 7 7 8 8 8 8 8 8 8 8 8 8 8 8 8 8 8 8 9 9 9 9 8 9 9 9 9 9 9 9 10 10 10 10 10 7 8 9 10 10 10 10 10 11 11
8 8 8 8 7 7 6 7 6 6 7 6 7 6 8 7 7 7 7 8 7 7 7 8 9 10 10 9 9 9 9 9 9 9 9 9 9 9 9 10 10 11 9 8 9 9 11 12 12 12 11 11
Wind_Direction
128 129 129 127 114 106 102 104 102 99 99 95 94 86 82 76 66 61 53 51 51 52 44 35 30 34 38 42 41 39 36 33 34 32 33 32 29 26 26 39 26 16 13 10 14 17 21 26 17 14 357 352
139 141 137 125 120 116 113 107 111 108 105 96 90 91 86 83 71 56 53 47 45 48 45 33 27 25 33 36 37 35 33 30 29 32 33 31 32 33 35 32 18 11 9 12 13 16 20 20 9 5 352 360
152 151 141 130 123 136 144 134 120 135 110 95 88 95 91 90 79 60 55 49 39 40 38 31 23 18 23 28 31 30 27 23 23 25 29 28 31 32 31 27 23 18 14 13 14 16 18 10 355 347 344 3
150 135 115 138 133 166 208 205 191 212 181 122 137 102 121 107 143 132 87 55 48 41 32 30 12 12 11 17 23 26 23 17 15 18 23 24 26 28 29 25 26 26 19 15 15 15 7 354 325 347 354 349
149 90 24 145 80 42 35 16 350 347 253 203 150 168 133 188 217 354 20 12 16 359 28 18 8 3 359 4 12 18 20 12 8 13 15 17 22 24 23 18 32 40 28 21 17 7 358 326 320 7 349 339
135 163 216 330 294 283 313 340 328 254 308 285 281 165 221 286 311 341 351 4 11 344 355 73 28 352 340 354 1 4 12 8 5 6 9 11 15 14 16 7 344 21 38 48 17 357 335 317 357 356 340 331
183 215 265 266 272 260 254 269 271 284 279 297 310 309 300 293 332 344 321 1 14 330 329 299 338 322 318 334 348 351 345 1 356 357 2 7 5 2 360 343 354 358 350 359 53 313 340 353 356 339 325 313
241 287 293 286 284 280 286 278 273 257 282 271 302 307 302 308 345 320 308 111 171 234 260 240 199 228 269 249 230 336 288 261 123 316 315 13 334 313 1 355 349 351 344 344 350 341 345 345 343 323 321 320
272 320 282 279 284 301 302 323 327 355 25 44 357 348 323 342 314 302 313 333 338 321 329 319 315 260 285 333 321 212 303 303 329 292 334 325 313 344 349 348 349 343 341 342 338 336 341 334 322 311 305 313
48 242 274 337 359 341 46 32 39 33 47 57 46 22 359 293 248 299 329 343 343 336 326 307 312 306 305 305 288 234 300 316 313 313 307 311 321 325 333 334 332 330 331 333 332 329 337 320 319 305 304 306
137 90 80 74 51 30 50 52 40 51 44 49 51 26 43 353 13 10 357 1 349 335 318 310 302 303 300 288 295 297 299 308 296 300 306 309 309 317 305 301 306 294 293 304 310 314 314 310 306 298 296 296
104 93 83 81 85 67 49 42 46 46 44 54 67 51 33 10 15 8 3 354 345 335 317 310 316 302 289 290 296 306 299 299 311 304 303 304 303 293 289 285 287 291 287 282 280 295 298 304 292 296 297 289
92 86 76 69 68 60 50 50 49 41 45 48 46 55 36 17 8 11 360 359 351 338 326 325 314 313 310 307 310 314 308 303 305 307 304 301 301 299 297 297 284 292 289 285 288 292 294 291 293 288 281 280
87 81 75 68 61 59 55 51 47 42 45 42 38 40 29 15 5 8 2 359 350 338 335 328 322 303 310 315 316 314 310 314 306 303 304 297 290 292 290 291 295 294 294 285 280 277 289 290 290 289 287 282
83 75 70 63 57 51 46 42 45 43 39 35 33 22 10 0 0 348 349 349 345 337 332 332 327 326 321 309 312 308 301 301 288 288 285 295 299 297 298 293 293 285 290 287 280 267 269 285 290 286 285 287
72 65 60 56 54 47 44 40 40 39 33 28 26 22 13 6 1 348 339 343 338 334 326 325 328 319 313 312 308 296 293 293 282 274 276 263 262 272 272 281 281 276 283 286 284 281 273 269 271 283 284 285
70 67 63 61 53 49 45 44 41 36 32 23 24 21 21 13 6 356 352 345 340 329 321 320 317 315 312 310 317 319 310 290 275 259 253 252 234 253 260 266 274 261 263 274 279 278 278 283 275 270 276 281
68 63 60 56 53 45 43 41 41 36 29 28 23 20 24 16 11 7 5 356 344 334 325 322 315 314 313 313 328 317 304 294 293 289 284 282 266 260 263 277 281 283 282 281 281 277 269 268 277 277 275 278
62 58 55 50 47 45 35 39 37 31 26 22 18 14 20 16 8 8 8 3 352 339 334 326 321 319 315 327 320 309 305 301 298 288 287 291 289 287 279 273 273 272 275 277 273 277 274 271 275 270 268 269
53 53 51 49 43 41 36 33 31 26 21 17 14 14 12 12 3 6 5 360 354 338 339 330 325 321 328 326 318 314 307 296 291 292 290 291 287 291 288 288 281 283 281 275 267 266 270 272 267 271 273 268
46 42 40 37 36 34 32 26 24 19 14 13 12 11 6 3 355 0 359 355 352 340 337 333 328 329 332 331 323 314 310 300 296 296 291 290 290 281 290 294 289 283 284 281 271 269 264 265 263 261 268 267
34 31 30 29 27 25 25 25 21 13 12 11 9 9 2 357 351 359 356 356 355 345 341 336 335 335 338 333 323 318 311 306 304 298 294 294 294 288 284 286 288 290 291 290 280 278 272 269 262 259 260 259
30 26 26 24 19 19 20 17 19 12 12 10 6 8 356 358 353 3 357 0 358 353 347 343 343 342 343 335 329 322 316 314 314 314 312 304 297 289 279 282 285 285 289 286 277 270 269 269 262 258 256 255
23 21 18 10 7 11 11 7 7 7 12 6 4 2 357 358 0 4 359 2 358 355 351 345 343 342 340 339 331 327 326 328 330 325 316 308 302 297 290 276 273 277 282 282 279 274 266 260 254 246 247 253
18 15 8 8 9 2 355 354 354 357 7 4 0 359 2 1 10 2 357 358 355 350 347 342 338 335 335 334 329 327 327 326 321 319 312 307 301 296 293 286 281 278 282 289 286 275 273 269 253 246 248 257
19 18 15 354 351 346 343 343 355 355 358 1 356 360 7 7 6 357 352 350 348 344 341 339 335 331 329 330 326 323 319 316 316 312 311 310 304 294 292 290 287 287 289 280 287 302 300 288 280 261 236 237
10 5 4 354 345 347 339 346 358 349 352 0 357 356 9 0 355 350 346 347 345 342 337 335 333 331 329 331 330 325 321 315 313 310 310 312 307 306 294 286 281 269 258 282 295 289 291 290 301 270 226 228
1 0 352 345 337 334 337 340 349 348 356 356 355 353 357 354 351 349 346 345 345 342 341 342 340 338 339 336 336 327 320 316 311 310 310 307 303 300 295 289 290 285 266 263 293 288 271 298 305 296 282 283
1 359 1 358 353 347 344 344 354 349 349 352 348 345 350 350 348 347 347 345 349 349 348 348 348 349 342 340 336 332 325 320 316 314 309 310 304 300 299 296 291 287 277 261 249 268 288 283 266 261 287 314
6 9 8 2 1 356 352 349 350 353 346 344 345 347 341 341 346 346 346 346 347 349 349 351 353 350 340 333 329 326 322 317 317 318 320 318 312 302 296 295 292 287 277 267 254 246 252 265 282 298 301 310
13 9 10 2 0 351 347 342 341 347 339 340 338 339 335 336 337 342 341 341 344 347 353 351 344 339 332 325 321 320 315 312 313 314 317 314 309 307 303 294 286 285 287 280 264 252 247 253 258 270 281 275